| time (UTC) | temp C | wind direction | speed KPH | gust KPH | rain 1hr cm | rain 24hr cm | rain mn cm | humidity % | barometer mb |
| 20260506092703 | 6 | 0 | 0.0 | 0.0 | 0.00 | 0.10 | 0.00 | 88 | 1017.0 |
| 20260506092103 | 6 | 0 | 0.0 | 0.0 | 0.00 | 0.10 | 0.00 | 88 | 1017.0 |
| 20260506091503 | 6 | 0 | 0.0 | 0.0 | 0.00 | 0.10 | 0.00 | 88 | 1017.1 |
| 20260506090903 | 6 | 0 | 0.0 | 0.0 | 0.00 | 0.10 | 0.00 | 88 | 1017.0 |
| 20260506090303 | 6 | 0 | 0.0 | 0.0 | 0.00 | 0.10 | 0.00 | 88 | 1017.0 |
| 20260506085703 | 6 | 0 | 0.0 | 0.0 | 0.00 | 0.10 | 0.00 | 88 | 1017.1 |
| 20260506085103 | 6 | 0 | 0.0 | 0.0 | 0.00 | 0.10 | 0.00 | 88 | 1017.1 |
| 20260506084503 | 6 | 0 | 0.0 | 0.0 | 0.00 | 0.10 | 0.00 | 88 | 1017.2 |
| 20260506083903 | 6 | 0 | 0.0 | 0.0 | 0.00 | 0.10 | 0.00 | 87 | 1017.2 |
| 20260506083303 | 6 | 0 | 0.0 | 0.0 | 0.00 | 0.10 | 0.00 | 87 | 1017.2 |
| 20260506082702 | 6 | 0 | 0.0 | 0.0 | 0.00 | 0.10 | 0.00 | 87 | 1017.0 |
| 20260506082103 | 6 | 0 | 0.0 | 0.0 | 0.00 | 0.10 | 0.00 | 87 | 1017.1 |
| 20260506081502 | 6 | 0 | 0.0 | 0.0 | 0.00 | 0.10 | 0.00 | 88 | 1017.1 |
| 20260506080903 | 6 | 0 | 0.0 | 0.0 | 0.00 | 0.10 | 0.00 | 89 | 1017.0 |
| 20260506080303 | 5 | 0 | 0.0 | 0.0 | 0.00 | 0.10 | 0.00 | 90 | 1017.0 |
| 20260506073303 | 5 | 0 | 0.0 | 0.0 | 0.00 | 0.10 | 0.00 | 92 | 1016.8 |
| 20260506072702 | 5 | 0 | 0.0 | 0.0 | 0.00 | 0.10 | 0.00 | 92 | 1016.9 |
| 20260506072103 | 5 | 0 | 0.0 | 0.0 | 0.00 | 0.10 | 0.00 | 92 | 1016.8 |
| 20260506071503 | 5 | 0 | 0.0 | 0.0 | 0.00 | 0.10 | 0.00 | 93 | 1016.7 |
| 20260506070903 | 5 | 0 | 0.0 | 0.0 | 0.00 | 0.10 | 0.00 | 93 | 1016.7 |
| 20260506070303 | 5 | 0 | 0.0 | 0.0 | 0.00 | 0.10 | 0.10 | 93 | 1016.6 |
| 20260506062103 | 5 | 0 | 0.0 | 0.0 | 0.00 | 0.10 | 0.10 | 92 | 1016.3 |
| 20260506061503 | 5 | 0 | 0.0 | 1.6 | 0.00 | 0.10 | 0.10 | 92 | 1016.2 |
| 20260506060903 | 5 | 0 | 0.0 | 1.6 | 0.00 | 0.10 | 0.10 | 91 | 1016.1 |
| 20260506060303 | 5 | 0 | 0.0 | 1.6 | 0.00 | 0.10 | 0.10 | 92 | 1016.1 |
| 20260506050902 | 5 | 0 | 0.0 | 0.0 | 0.00 | 0.10 | 0.10 | 92 | 1015.6 |
| 20260506050302 | 5 | 0 | 0.0 | 0.0 | 0.00 | 0.10 | 0.10 | 92 | 1015.5 |
| 20260506045102 | 5 | 0 | 0.0 | 0.0 | 0.00 | 0.10 | 0.10 | 92 | 1015.4 |
| 20260506044503 | 5 | 0 | 0.0 | 0.0 | 0.00 | 0.10 | 0.10 | 92 | 1015.5 |
| 20260506043903 | 5 | 0 | 0.0 | 0.0 | 0.00 | 0.10 | 0.10 | 92 | 1015.4 |
| 20260506043302 | 5 | 0 | 0.0 | 0.0 | 0.00 | 0.10 | 0.10 | 92 | 1015.3 |
| 20260506042702 | 5 | 0 | 0.0 | 0.0 | 0.00 | 0.10 | 0.10 | 92 | 1015.4 |
| 20260506042102 | 5 | 0 | 0.0 | 0.0 | 0.00 | 0.10 | 0.10 | 92 | 1015.3 |
| 20260506041502 | 5 | 0 | 0.0 | 0.0 | 0.00 | 0.10 | 0.10 | 92 | 1015.2 |
| 20260506040903 | 5 | 0 | 0.0 | 0.0 | 0.00 | 0.10 | 0.10 | 92 | 1015.2 |
| 20260506040302 | 5 | 0 | 0.0 | 0.0 | 0.00 | 0.10 | 0.10 | 92 | 1015.0 |
| 20260506035703 | 5 | 0 | 0.0 | 0.0 | 0.00 | 0.10 | 0.10 | 91 | 1015.0 |
| 20260506034702 | 5 | 0 | 0.0 | 0.0 | 0.00 | 0.10 | 0.10 | 92 | 1015.0 |
| 20260506034102 | 5 | 0 | 0.0 | 0.0 | 0.00 | 0.10 | 0.10 | 92 | 1014.9 |
| 20260506033502 | 5 | 0 | 0.0 | 0.0 | 0.00 | 0.10 | 0.10 | 92 | 1014.8 |
| 20260506032902 | 5 | 0 | 0.0 | 0.0 | 0.00 | 0.10 | 0.10 | 92 | 1014.8 |
| 20260506032305 | 5 | 0 | 0.0 | 0.0 | 0.00 | 0.10 | 0.10 | 92 | 1014.8 |
| 20260506031702 | 5 | 0 | 0.0 | 0.0 | 0.00 | 0.10 | 0.10 | 92 | 1014.7 |
| 20260506031103 | 5 | 0 | 0.0 | 0.0 | 0.00 | 0.10 | 0.10 | 92 | 1014.5 |
| 20260506030504 | 5 | 0 | 0.0 | 0.0 | 0.00 | 0.10 | 0.10 | 91 | 1014.6 |
| 20260506025902 | 5 | 0 | 0.0 | 0.0 | 0.00 | 0.10 | 0.10 | 91 | 1014.4 |
| 20260506025305 | 5 | 0 | 0.0 | 0.0 | 0.00 | 0.10 | 0.10 | 90 | 1014.5 |
| 20260506024702 | 6 | 0 | 0.0 | 0.0 | 0.00 | 0.10 | 0.10 | 90 | 1014.5 |
| 20260506024102 | 6 | 0 | 0.0 | 0.0 | 0.00 | 0.10 | 0.10 | 91 | 1014.4 |
| 20260506022902 | 6 | 0 | 0.0 | 0.0 | 0.00 | 0.10 | 0.10 | 91 | 1014.4 |
| 20260506022305 | 6 | 0 | 0.0 | 0.0 | 0.00 | 0.10 | 0.10 | 93 | 1014.4 |
| 20260506021702 | 6 | 0 | 0.0 | 0.0 | 0.00 | 0.10 | 0.10 | 93 | 1014.4 |
| 20260506021102 | 6 | 0 | 0.0 | 0.0 | 0.00 | 0.10 | 0.10 | 93 | 1014.4 |
| 20260506020503 | 6 | 0 | 0.0 | 1.6 | 0.00 | 0.10 | 0.10 | 92 | 1014.3 |
| 20260506015902 | 6 | 0 | 0.0 | 1.6 | 0.00 | 0.10 | 0.10 | 93 | 1014.4 |
| 20260506015302 | 6 | 0 | 0.0 | 0.0 | 0.00 | 0.10 | 0.10 | 94 | 1014.4 |
| 20260506014702 | 6 | 0 | 0.0 | 0.0 | 0.00 | 0.10 | 0.10 | 94 | 1014.3 |
| 20260506014102 | 7 | 0 | 0.0 | 0.0 | 0.00 | 0.10 | 0.10 | 94 | 1014.3 |
| 20260506013503 | 7 | 0 | 0.0 | 0.0 | 0.00 | 0.10 | 0.10 | 94 | 1014.2 |
| 20260506012902 | 7 | 0 | 0.0 | 0.0 | 0.00 | 0.10 | 0.10 | 94 | 1014.2 |
| 20260506012307 | 7 | 0 | 0.0 | 0.0 | 0.00 | 0.10 | 0.10 | 96 | 1014.3 |
| 20260506011702 | 7 | 0 | 0.0 | 0.0 | 0.00 | 0.10 | 0.10 | 96 | 1014.4 |
| 20260506011102 | 6 | 0 | 0.0 | 0.0 | 0.00 | 0.10 | 0.10 | 96 | 1014.3 |
| 20260506010503 | 6 | 0 | 0.0 | 0.0 | 0.00 | 0.10 | 0.10 | 96 | 1014.4 |
| 20260506005902 | 6 | 0 | 0.0 | 0.0 | 0.00 | 0.10 | 0.10 | 96 | 1014.4 |
| 20260506005302 | 6 | 0 | 0.0 | 0.0 | 0.00 | 0.10 | 0.10 | 97 | 1014.4 |
| 20260506004702 | 6 | 0 | 0.0 | 0.0 | 0.00 | 0.10 | 0.10 | 97 | 1014.3 |
| 20260506004102 | 6 | 0 | 0.0 | 0.0 | 0.00 | 0.10 | 0.10 | 97 | 1014.3 |
| 20260506003503 | 6 | 0 | 0.0 | 0.0 | 0.00 | 0.10 | 0.10 | 97 | 1014.2 |
| 20260506002902 | 6 | 0 | 0.0 | 0.0 | 0.00 | 0.10 | 0.10 | 97 | 1014.2 |
| 20260506002305 | 5 | 0 | 0.0 | 1.6 | 0.00 | 0.10 | 0.10 | 97 | 1014.2 |
| 20260506001702 | 5 | 0 | 0.0 | 1.6 | 0.00 | 0.10 | 0.10 | 97 | 1014.2 |
| 20260506001102 | 5 | 0 | 0.0 | 8.0 | 0.00 | 0.10 | 0.10 | 96 | 1014.2 |
| 20260506000502 | 5 | 172 | 1.6 | 8.0 | 0.00 | 0.10 | 0.10 | 96 | 1014.2 |
| 20260505235902 | 5 | 0 | 0.0 | 0.0 | 0.00 | 0.10 | 0.10 | 97 | 1014.2 |
| 20260505235304 | 5 | 0 | 0.0 | 3.2 | 0.00 | 0.10 | 0.10 | 97 | 1014.1 |
| 20260505234702 | 5 | 0 | 0.0 | 4.8 | 0.00 | 0.10 | 0.10 | 96 | 1014.3 |
| 20260505234102 | 5 | 0 | 0.0 | 8.0 | 0.00 | 0.10 | 0.10 | 96 | 1014.4 |
| 20260505233502 | 5 | 0 | 0.0 | 0.0 | 0.00 | 0.10 | 0.10 | 96 | 1014.4 |
| 20260505232902 | 5 | 0 | 0.0 | 4.8 | 0.00 | 0.10 | 0.10 | 97 | 1014.3 |
| 20260505232305 | 6 | 0 | 0.0 | 4.8 | 0.00 | 0.10 | 0.10 | 97 | 1014.3 |
| 20260505231702 | 6 | 0 | 0.0 | 0.0 | 0.00 | 0.10 | 0.10 | 97 | 1014.3 |
| 20260505231102 | 6 | 0 | 0.0 | 0.0 | 0.00 | 0.10 | 0.10 | 97 | 1014.3 |
| 20260505225902 | 6 | 0 | 0.0 | 0.0 | 0.00 | 0.10 | 0.10 | 97 | 1014.4 |
| 20260505225305 | 6 | 0 | 0.0 | 0.0 | 0.00 | 0.10 | 0.10 | 97 | 1014.4 |
| 20260505224702 | 6 | 0 | 0.0 | 0.0 | 0.00 | 0.10 | 0.10 | 97 | 1014.4 |
| 20260505224102 | 6 | 0 | 0.0 | 0.0 | 0.00 | 0.10 | 0.10 | 97 | 1014.4 |
| 20260505223506 | 6 | 0 | 0.0 | 0.0 | 0.00 | 0.10 | 0.10 | 97 | 1014.4 |
| 20260505222902 | 6 | 0 | 0.0 | 0.0 | 0.00 | 0.10 | 0.10 | 97 | 1014.4 |
| 20260505222305 | 6 | 0 | 0.0 | 8.0 | 0.00 | 0.10 | 0.10 | 97 | 1014.2 |
| 20260505221702 | 6 | 172 | 1.6 | 8.0 | 0.00 | 0.10 | 0.10 | 97 | 1014.3 |
| 20260505221102 | 6 | 0 | 0.0 | 0.0 | 0.00 | 0.10 | 0.10 | 97 | 1014.3 |
| 20260505220503 | 6 | 0 | 0.0 | 0.0 | 0.00 | 0.10 | 0.10 | 97 | 1014.3 |
| 20260505215902 | 6 | 0 | 0.0 | 8.0 | 0.00 | 0.10 | 0.10 | 97 | 1014.3 |
| 20260505215304 | 6 | 0 | 0.0 | 8.0 | 0.00 | 0.10 | 0.10 | 97 | 1014.3 |
| 20260505214702 | 6 | 0 | 0.0 | 9.7 | 0.00 | 0.10 | 0.10 | 97 | 1014.2 |
| 20260505214102 | 5 | 172 | 3.2 | 9.7 | 0.00 | 0.10 | 0.10 | 97 | 1014.3 |
| 20260505213502 | 5 | 0 | 0.0 | 17.7 | 0.00 | 0.10 | 0.10 | 97 | 1014.3 |
| 20260505212902 | 5 | 0 | 0.0 | 17.7 | 0.00 | 0.13 | 0.10 | 97 | 1014.4 |
| 20260505212305 | 5 | 0 | 0.0 | 3.2 | 0.00 | 0.13 | 0.10 | 97 | 1014.3 |
| 20260505211702 | 5 | 0 | 0.0 | 14.5 | 0.00 | 0.13 | 0.10 | 97 | 1014.2 |
| 20260505211102 | 5 | 0 | 0.0 | 19.3 | 0.00 | 0.13 | 0.10 | 97 | 1014.0 |
| 20260505210502 | 5 | 172 | 1.6 | 19.3 | 0.00 | 0.13 | 0.10 | 96 | 1013.9 |
| 20260505205902 | 5 | 172 | 8.0 | 19.3 | 0.00 | 0.13 | 0.10 | 97 | 1013.9 |
| 20260505205305 | 5 | 172 | 4.8 | 16.1 | 0.00 | 0.13 | 0.10 | 96 | 1013.9 |
| 20260505204702 | 5 | 172 | 3.2 | 14.5 | 0.00 | 0.13 | 0.10 | 96 | 1014.0 |
| 20260505204102 | 5 | 172 | 4.8 | 11.3 | 0.00 | 0.13 | 0.10 | 96 | 1014.0 |
| 20260505203502 | 5 | 0 | 0.0 | 11.3 | 0.00 | 0.13 | 0.10 | 96 | 1013.9 |
| 20260505202902 | 5 | 0 | 0.0 | 16.1 | 0.00 | 0.13 | 0.10 | 96 | 1013.9 |
| 20260505202302 | 6 | 0 | 0.0 | 16.1 | 0.00 | 0.13 | 0.10 | 97 | 1013.8 |
| 20260505201702 | 6 | 0 | 0.0 | 9.7 | 0.00 | 0.13 | 0.10 | 96 | 1013.8 |
| 20260505201102 | 6 | 0 | 0.0 | 12.9 | 0.00 | 0.13 | 0.10 | 97 | 1013.7 |
| 20260505200502 | 5 | 172 | 1.6 | 12.9 | 0.00 | 0.13 | 0.10 | 96 | 1013.8 |
| 20260505195902 | 5 | 0 | 0.0 | 0.0 | 0.00 | 0.13 | 0.10 | 96 | 1013.8 |
| 20260505195304 | 5 | 0 | 0.0 | 0.0 | 0.00 | 0.13 | 0.10 | 96 | 1013.8 |
| 20260505194702 | 5 | 0 | 0.0 | 0.0 | 0.00 | 0.13 | 0.10 | 96 | 1013.8 |
| 20260505194102 | 5 | 0 | 0.0 | 0.0 | 0.00 | 0.13 | 0.10 | 96 | 1013.8 |
| 20260505193502 | 5 | 0 | 0.0 | 0.0 | 0.00 | 0.13 | 0.10 | 96 | 1013.8 |
| 20260505192902 | 5 | 0 | 0.0 | 0.0 | 0.00 | 0.13 | 0.10 | 96 | 1013.8 |
| 20260505192305 | 5 | 0 | 0.0 | 0.0 | 0.00 | 0.13 | 0.10 | 96 | 1013.8 |
| 20260505191702 | 5 | 0 | 0.0 | 14.5 | 0.00 | 0.13 | 0.10 | 95 | 1013.6 |
| 20260505191102 | 5 | 172 | 4.8 | 14.5 | 0.00 | 0.13 | 0.10 | 95 | 1013.7 |
| 20260505190502 | 5 | 172 | 1.6 | 14.5 | 0.00 | 0.13 | 0.10 | 95 | 1013.7 |
| 20260505185902 | 5 | 172 | 4.8 | 14.5 | 0.00 | 0.13 | 0.10 | 95 | 1013.7 |
| 20260505185304 | 6 | 172 | 4.8 | 12.9 | 0.00 | 0.13 | 0.10 | 95 | 1013.6 |
| 20260505184702 | 6 | 0 | 0.0 | 11.3 | 0.00 | 0.13 | 0.10 | 96 | 1013.6 |
| 20260505184102 | 6 | 172 | 1.6 | 11.3 | 0.00 | 0.13 | 0.10 | 95 | 1013.5 |
| 20260505183502 | 6 | 0 | 0.0 | 0.0 | 0.00 | 0.15 | 0.10 | 95 | 1013.5 |
| 20260505182904 | 5 | 0 | 0.0 | 16.1 | 0.00 | 0.15 | 0.10 | 94 | 1013.5 |
| 20260505182305 | 6 | 172 | 4.8 | 16.1 | 0.00 | 0.15 | 0.10 | 95 | 1013.4 |
| 20260505181702 | 6 | 0 | 0.0 | 11.3 | 0.00 | 0.15 | 0.10 | 95 | 1013.5 |
| 20260505181102 | 6 | 172 | 1.6 | 11.3 | 0.00 | 0.15 | 0.10 | 94 | 1013.6 |
| 20260505180502 | 6 | 0 | 0.0 | 4.8 | 0.00 | 0.15 | 0.10 | 94 | 1013.6 |
| 20260505175903 | 6 | 0 | 0.0 | 14.5 | 0.00 | 0.15 | 0.10 | 95 | 1013.4 |
| 20260505175305 | 6 | 0 | 0.0 | 14.5 | 0.00 | 0.15 | 0.10 | 96 | 1013.4 |
| 20260505174702 | 6 | 172 | 1.6 | 9.7 | 0.00 | 0.15 | 0.10 | 96 | 1013.2 |
| 20260505174102 | 6 | 0 | 0.0 | 0.0 | 0.00 | 0.15 | 0.10 | 96 | 1013.1 |
| 20260505173502 | 5 | 0 | 0.0 | 17.7 | 0.00 | 0.15 | 0.10 | 96 | 1013.1 |
| 20260505172902 | 5 | 0 | 0.0 | 9.7 | 0.03 | 0.15 | 0.10 | 96 | 1012.9 |
| 20260505172305 | 5 | 0 | 0.0 | 11.3 | 0.03 | 0.15 | 0.10 | 96 | 1013.1 |
| 20260505171702 | 5 | 172 | 4.8 | 11.3 | 0.03 | 0.15 | 0.10 | 96 | 1012.9 |
| 20260505171102 | 5 | 0 | 0.0 | 12.9 | 0.03 | 0.18 | 0.10 | 96 | 1012.8 |
| 20260505170502 | 5 | 172 | 4.8 | 12.9 | 0.03 | 0.18 | 0.10 | 97 | 1012.8 |
| 20260505165902 | 5 | 172 | 3.2 | 20.9 | 0.03 | 0.18 | 0.10 | 97 | 1012.8 |
| 20260505165302 | 5 | 172 | 3.2 | 16.1 | 0.03 | 0.18 | 0.10 | 97 | 1012.7 |
| 20260505164702 | 5 | 172 | 1.6 | 12.9 | 0.03 | 0.18 | 0.10 | 97 | 1012.8 |
| 20260505164102 | 5 | 0 | 0.0 | 0.0 | 0.03 | 0.18 | 0.10 | 97 | 1012.6 |
| 20260505163502 | 5 | 0 | 0.0 | 0.0 | 0.03 | 0.18 | 0.10 | 97 | 1012.7 |
| 20260505162902 | 5 | 0 | 0.0 | 0.0 | 0.00 | 0.15 | 0.08 | 97 | 1012.7 |
| 20260505162302 | 5 | 0 | 0.0 | 0.0 | 0.00 | 0.15 | 0.08 | 97 | 1012.6 |
| 20260505161702 | 5 | 0 | 0.0 | 0.0 | 0.00 | 0.15 | 0.08 | 96 | 1012.6 |
| 20260505161102 | 5 | 0 | 0.0 | 0.0 | 0.00 | 0.15 | 0.08 | 97 | 1012.4 |
| 20260505160502 | 5 | 0 | 0.0 | 0.0 | 0.00 | 0.15 | 0.08 | 97 | 1012.4 |
| 20260505152902 | 5 | 0 | 0.0 | 0.0 | 0.00 | 0.15 | 0.08 | 97 | 1012.3 |
| 20260505152304 | 5 | 0 | 0.0 | 0.0 | 0.00 | 0.15 | 0.08 | 97 | 1012.2 |
| 20260505151702 | 5 | 0 | 0.0 | 0.0 | 0.00 | 0.15 | 0.08 | 97 | 1012.2 |
| 20260505151102 | 5 | 0 | 0.0 | 0.0 | 0.00 | 0.15 | 0.08 | 96 | 1012.2 |
| 20260505150502 | 5 | 0 | 0.0 | 0.0 | 0.00 | 0.15 | 0.08 | 97 | 1012.0 |
| 20260505140502 | 4 | 0 | 0.0 | 0.0 | 0.03 | 0.15 | 0.08 | 97 | 1011.5 |
| 20260505124702 | 4 | 0 | 0.0 | 0.0 | 0.05 | 0.13 | 0.05 | 96 | 1011.3 |
| 20260505124102 | 4 | 0 | 0.0 | 0.0 | 0.05 | 0.13 | 0.05 | 96 | 1011.1 |
| 20260505123502 | 4 | 0 | 0.0 | 0.0 | 0.05 | 0.13 | 0.05 | 96 | 1011.1 |
| 20260505122902 | 4 | 0 | 0.0 | 0.0 | 0.03 | 0.10 | 0.03 | 96 | 1011.1 |
| 20260505122302 | 4 | 0 | 0.0 | 0.0 | 0.03 | 0.10 | 0.03 | 96 | 1011.1 |
| 20260505121702 | 4 | 0 | 0.0 | 0.0 | 0.03 | 0.10 | 0.03 | 96 | 1011.1 |
| 20260505121102 | 4 | 0 | 0.0 | 8.0 | 0.03 | 0.10 | 0.03 | 96 | 1011.1 |
| 20260505120502 | 4 | 172 | 3.2 | 9.7 | 0.03 | 0.10 | 0.03 | 96 | 1011.2 |
| 20260505115902 | 4 | 172 | 3.2 | 9.7 | 0.00 | 0.08 | 0.00 | 96 | 1011.1 |
| 20260505115304 | 4 | 0 | 0.0 | 8.0 | 0.00 | 0.08 | 0.00 | 96 | 1011.1 |
| 20260505114702 | 4 | 0 | 0.0 | 0.0 | 0.00 | 0.08 | 0.00 | 96 | 1011.1 |
| 20260505114102 | 4 | 0 | 0.0 | 0.0 | 0.00 | 0.08 | 0.00 | 96 | 1011.1 |
| 20260505113502 | 4 | 0 | 0.0 | 0.0 | 0.00 | 0.08 | 0.00 | 96 | 1011.1 |
| 20260505112902 | 4 | 0 | 0.0 | 0.0 | 0.00 | 0.08 | 0.00 | 96 | 1011.1 |
| 20260505112304 | 4 | 0 | 0.0 | 0.0 | 0.00 | 0.08 | 0.00 | 96 | 1011.1 |
| 20260505111702 | 4 | 0 | 0.0 | 9.7 | 0.00 | 0.08 | 0.00 | 96 | 1011.1 |
| 20260505111103 | 4 | 0 | 0.0 | 12.9 | 0.00 | 0.08 | 0.00 | 96 | 1011.1 |
| 20260505110502 | 5 | 0 | 0.0 | 11.3 | 0.00 | 0.08 | 0.00 | 96 | 1011.1 |
| 20260505101702 | 5 | 0 | 0.0 | 0.0 | 0.00 | 0.08 | 0.00 | 94 | 1011.3 |
| 20260505101102 | 5 | 0 | 0.0 | 0.0 | 0.00 | 0.08 | 0.00 | 94 | 1011.3 |
| 20260505100502 | 5 | 0 | 0.0 | 3.2 | 0.00 | 0.08 | 0.00 | 94 | 1011.2 |
| 20260505095902 | 5 | 0 | 0.0 | 11.3 | 0.00 | 0.08 | 0.00 | 94 | 1011.2 |
| 20260505095304 | 5 | 172 | 4.8 | 11.3 | 0.00 | 0.08 | 0.00 | 94 | 1011.2 |
| 20260505094702 | 5 | 0 | 0.0 | 11.3 | 0.00 | 0.08 | 0.00 | 94 | 1011.2 |
| 20260505094102 | 5 | 0 | 0.0 | 8.0 | 0.00 | 0.08 | 0.00 | 93 | 1011.3 |
| 20260505093502 | 5 | 0 | 0.0 | 11.3 | 0.00 | 0.08 | 0.00 | 93 | 1011.3 |